DW2453 Weather Reports


Display with metric or nautical units.
time (UTC)temp
F
wind
direction
speed
MPH
gust
MPH
rain 1hr
in
rain 24hr
in
rain mn
in
humidity
%
barometer
mb
20200705221830 100 285 2.0 6.0 0.00 0.00 0.00 14 1011.3
20200705221330 100 285 6.0 6.0 0.00 0.00 0.00 15 1011.3
20200705220830 100 285 1.0 8.0 0.00 0.00 0.00 15 1011.2
20200705220330 99 286 6.0 7.0 0.00 0.00 0.00 16 1011.3
20200705215830 99 286 2.0 4.0 0.00 0.00 0.00 16 1011.3
20200705215330 99 286 0.0 5.0 0.00 0.00 0.00 18 1011.3
20200705214830 99 286 0.0 4.0 0.00 0.00 0.00 17 1011.2
20200705214330 98 286 0.0 4.0 0.00 0.00 0.00 17 1011.3
20200705213830 98 286 0.0 8.0 0.00 0.00 0.00 19 1011.3
20200705213330 98 286 0.0 5.0 0.00 0.00 0.00 16 1011.3
20200705212830 98 286 3.0 7.0 0.00 0.00 0.00 17 1011.3
20200705212330 98 290 2.0 5.0 0.00 0.00 0.00 17 1011.3
20200705211830 98 290 0.0 5.0 0.00 0.00 0.00 17 1011.4
20200705211330 97 290 2.0 6.0 0.00 0.00 0.00 18 1011.4
20200705210830 97 293 1.0 6.0 0.00 0.00 0.00 16 1011.3
20200705210330 97 293 0.0 3.0 0.00 0.00 0.00 18 1011.2
20200705205830 97 293 0.0 5.0 0.00 0.00 0.00 19 1011.2
20200705205330 97 293 2.0 4.0 0.00 0.00 0.00 19 1011.3
20200705204830 96 294 0.0 9.0 0.00 0.00 0.00 22 1011.3
20200705204330 96 294 4.0 6.0 0.00 0.00 0.00 20 1011.3
20200705203830 96 298 0.0 3.0 0.00 0.00 0.00 19 1011.3
20200705203330 96 298 2.0 5.0 0.00 0.00 0.00 21 1011.4
20200705202830 96 299 0.0 7.0 0.00 0.00 0.00 20 1011.5
20200705202330 95 299 3.0 8.0 0.00 0.00 0.00 21 1011.7
20200705201830 95 300 2.0 8.0 0.00 0.00 0.00 21 1011.6
20200705201330 95 300 4.0 8.0 0.00 0.00 0.00 21 1011.6
20200705200830 95 323 0.0 4.0 0.00 0.00 0.00 20 1011.5
20200705200330 94 323 1.0 6.0 0.00 0.00 0.00 23 1011.7
20200705195830 94 323 0.0 4.0 0.00 0.00 0.00 23 1011.6
20200705195330 94 323 2.0 5.0 0.00 0.00 0.00 24 1011.9
20200705194830 93 323 0.0 4.0 0.00 0.00 0.00 25 1011.9
20200705194330 92 323 0.0 5.0 0.00 0.00 0.00 25 1011.9
20200705193830 92 323 1.0 5.0 0.00 0.00 0.00 27 1011.9
20200705193330 91 323 0.0 3.0 0.00 0.00 0.00 28 1012.0
20200705192830 91 323 0.0 4.0 0.00 0.00 0.00 27 1012.0
20200705192330 90 323 0.0 2.0 0.00 0.00 0.00 26 1012.0
20200705191830 90 323 0.0 5.0 0.00 0.00 0.00 29 1012.1
20200705191330 90 323 1.0 5.0 0.00 0.00 0.00 27 1012.2
20200705190830 89 323 0.0 6.0 0.00 0.00 0.00 30 1012.3
20200705190330 89 323 0.0 4.0 0.00 0.00 0.00 29 1012.4
20200705185830 88 323 3.0 3.0 0.00 0.00 0.00 32 1012.4
20200705185330 88 323 0.0 4.0 0.00 0.00 0.00 30 1012.6
20200705184830 88 323 3.0 5.0 0.00 0.00 0.00 29 1012.6
20200705184330 87 323 3.0 4.0 0.00 0.00 0.00 33 1012.6
20200705183830 87 323 0.0 4.0 0.00 0.00 0.00 31 1012.6
20200705183330 87 323 1.0 4.0 0.00 0.00 0.00 35 1012.7
20200705182830 86 323 2.0 4.0 0.00 0.00 0.00 32 1012.7
20200705182330 86 323 0.0 3.0 0.00 0.00 0.00 34 1012.6
20200705181830 86 323 2.0 5.0 0.00 0.00 0.00 35 1012.6
20200705181330 86 323 0.0 4.0 0.00 0.00 0.00 33 1012.7
20200705180831 86 323 0.0 4.0 0.00 0.00 0.00 37 1012.8
20200705180330 87 323 0.0 5.0 0.00 0.00 0.00 34 1012.9
20200705175830 87 323 2.0 3.0 0.00 0.00 0.00 33 1012.9
20200705175330 88 323 0.0 4.0 0.00 0.00 0.00 29 1012.9
20200705174830 87 323 0.0 5.0 0.00 0.00 0.00 30 1012.9
20200705174330 87 323 0.0 3.0 0.00 0.00 0.00 32 1012.9
20200705173830 87 323 2.0 5.0 0.00 0.00 0.00 33 1012.9
20200705173330 86 323 1.0 3.0 0.00 0.00 0.00 34 1013.0
20200705172830 86 323 0.0 2.0 0.00 0.00 0.00 32 1013.0
20200705172330 86 323 0.0 2.0 0.00 0.00 0.00 32 1013.1
20200705171830 86 323 1.0 2.0 0.00 0.00 0.00 35 1013.1
20200705171330 85 323 2.0 4.0 0.00 0.00 0.00 35 1013.0
20200705170830 85 323 0.0 3.0 0.00 0.00 0.00 34 1013.0
20200705170330 85 323 1.0 4.0 0.00 0.00 0.00 35 1013.1
20200705165830 85 323 0.0 3.0 0.00 0.00 0.00 35 1013.1
20200705165330 85 323 2.0 4.0 0.00 0.00 0.00 36 1013.1
20200705164830 85 323 0.0 4.0 0.00 0.00 0.00 35 1013.1
20200705164330 85 323 1.0 4.0 0.00 0.00 0.00 36 1013.1
20200705163830 84 323 0.0 4.0 0.00 0.00 0.00 39 1013.1
20200705163330 84 323 0.0 3.0 0.00 0.00 0.00 37 1013.2
20200705162830 84 323 0.0 4.0 0.00 0.00 0.00 37 1013.3
20200705162330 84 323 0.0 5.0 0.00 0.00 0.00 39 1013.2
20200705161830 83 324 0.0 6.0 0.00 0.00 0.00 38 1013.3
20200705161330 83 324 1.0 3.0 0.00 0.00 0.00 39 1013.3
20200705160830 83 324 0.0 5.0 0.00 0.00 0.00 39 1013.3
20200705160330 82 327 3.0 6.0 0.00 0.00 0.00 40 1013.3
20200705155830 82 328 0.0 4.0 0.00 0.00 0.00 40 1013.3
20200705155330 82 328 3.0 3.0 0.00 0.00 0.00 40 1013.4
20200705154830 81 328 0.0 3.0 0.00 0.00 0.00 40 1013.4
20200705154330 81 328 1.0 2.0 0.00 0.00 0.00 41 1013.4
20200705153830 81 328 0.0 1.0 0.00 0.00 0.00 41 1013.4
20200705153330 81 328 0.0 2.0 0.00 0.00 0.00 42 1013.5
20200705152830 81 328 0.0 3.0 0.00 0.00 0.00 44 1013.5
20200705152330 80 328 0.0 1.0 0.00 0.00 0.00 43 1013.6
20200705151830 80 328 0.0 4.0 0.00 0.00 0.00 44 1013.6
20200705151330 80 328 0.0 2.0 0.00 0.00 0.00 44 1013.7
20200705150830 80 328 0.0 3.0 0.00 0.00 0.00 45 1013.8
20200705150330 80 328 0.0 3.0 0.00 0.00 0.00 44 1013.6
20200705145830 80 328 2.0 3.0 0.00 0.00 0.00 44 1013.7
20200705145330 80 328 0.0 2.0 0.00 0.00 0.00 44 1013.7
20200705144830 79 328 0.0 2.0 0.00 0.00 0.00 45 1013.6
20200705144330 79 328 1.0 3.0 0.00 0.00 0.00 45 1013.6
20200705143830 79 328 0.0 0.0 0.00 0.00 0.00 45 1013.6
20200705143330 78 328 0.0 0.0 0.00 0.00 0.00 45 1013.5
20200705142830 78 328 0.0 0.0 0.00 0.00 0.00 45 1013.5
20200705142330 78 328 0.0 0.0 0.00 0.00 0.00 46 1013.6
20200705141830 77 328 0.0 0.0 0.00 0.00 0.00 48 1013.6
20200705141330 76 328 0.0 0.0 0.00 0.00 0.00 48 1013.7
20200705140830 76 328 0.0 0.0 0.00 0.00 0.00 48 1013.8
20200705140330 75 328 0.0 0.0 0.00 0.00 0.00 50 1013.8
20200705135830 75 328 0.0 0.0 0.00 0.00 0.00 50 1013.7
20200705135330 74 328 0.0 0.0 0.00 0.00 0.00 54 1013.8
20200705134830 73 328 0.0 0.0 0.00 0.00 0.00 53 1013.9
20200705134330 72 328 0.0 0.0 0.00 0.00 0.00 57 1013.9
20200705133830 71 328 0.0 0.0 0.00 0.00 0.00 57 1013.9
20200705133330 70 328 0.0 0.0 0.00 0.00 0.00 61 1014.0
20200705132830 68 328 0.0 0.0 0.00 0.00 0.00 63 1014.0
20200705132330 67 328 0.0 0.0 0.00 0.00 0.00 63 1014.1
20200705131830 66 328 0.0 0.0 0.00 0.00 0.00 66 1014.1
20200705131330 65 328 0.0 0.0 0.00 0.00 0.00 66 1014.1
20200705130830 65 328 0.0 0.0 0.00 0.00 0.00 66 1014.2
20200705130330 65 328 0.0 0.0 0.00 0.00 0.00 67 1014.3
20200705125830 65 328 0.0 0.0 0.00 0.00 0.00 65 1014.3
20200705125330 65 328 0.0 0.0 0.00 0.00 0.00 65 1014.4
20200705124830 65 328 0.0 0.0 0.00 0.00 0.00 66 1014.4
20200705124330 65 328 0.0 0.0 0.00 0.00 0.00 64 1014.5
20200705123830 65 328 0.0 0.0 0.00 0.00 0.00 65 1014.4
20200705123330 65 328 0.0 0.0 0.00 0.00 0.00 64 1014.5
20200705122830 65 328 0.0 0.0 0.00 0.00 0.00 63 1014.5
20200705122330 65 328 0.0 0.0 0.00 0.00 0.00 63 1014.5
20200705121830 66 328 0.0 0.0 0.00 0.00 0.00 61 1014.5
20200705121330 66 328 0.0 0.0 0.00 0.00 0.00 61 1014.5
20200705120830 66 328 0.0 0.0 0.00 0.00 0.00 62 1014.5
20200705120330 67 328 0.0 0.0 0.00 0.00 0.00 64 1014.4
20200705115830 67 328 0.0 0.0 0.00 0.00 0.00 60 1014.4
20200705115330 67 328 0.0 0.0 0.00 0.00 0.00 62 1014.4
20200705114830 67 328 0.0 0.0 0.00 0.00 0.00 59 1014.6
20200705114330 67 328 0.0 0.0 0.00 0.00 0.00 58 1014.7
20200705113830 67 328 0.0 0.0 0.00 0.00 0.00 58 1014.6
20200705113329 66 328 0.0 0.0 0.00 0.00 0.00 58 1014.8
20200705112830 66 328 0.0 1.0 0.00 0.00 0.00 59 1014.9
20200705112329 66 328 0.0 0.0 0.00 0.00 0.00 59 1014.9
20200705111830 66 328 0.0 0.0 0.00 0.00 0.00 59 1015.0
20200705111330 66 328 0.0 0.0 0.00 0.00 0.00 59 1015.0
20200705110830 66 328 0.0 0.0 0.00 0.00 0.00 59 1015.0
20200705110329 66 328 0.0 0.0 0.00 0.00 0.00 59 1014.9
20200705105830 67 328 0.0 0.0 0.00 0.00 0.00 58 1014.9
20200705105330 67 328 0.0 0.0 0.00 0.00 0.00 57 1015.0
20200705104830 67 328 0.0 0.0 0.00 0.00 0.00 57 1015.0
20200705104330 68 328 0.0 0.0 0.00 0.00 0.00 56 1015.2
20200705103829 68 328 0.0 0.0 0.00 0.00 0.00 56 1015.2
20200705103330 68 328 0.0 0.0 0.00 0.00 0.00 56 1015.1
20200705102829 68 328 0.0 0.0 0.00 0.00 0.00 55 1015.1
20200705102330 68 328 0.0 0.0 0.00 0.00 0.00 55 1015.1
20200705101830 68 328 0.0 1.0 0.00 0.00 0.00 55 1015.1
20200705101329 68 328 0.0 0.0 0.00 0.00 0.00 55 1015.1
20200705100830 68 328 0.0 0.0 0.00 0.00 0.00 55 1015.2
20200705100330 68 328 0.0 3.0 0.00 0.00 0.00 55 1015.3
20200705095830 68 328 3.0 3.0 0.00 0.00 0.00 55 1015.3
20200705095330 68 328 0.0 0.0 0.00 0.00 0.00 54 1015.4
20200705094830 68 328 0.0 0.0 0.00 0.00 0.00 54 1015.4
20200705094330 68 328 0.0 0.0 0.00 0.00 0.00 53 1015.5
20200705093830 68 328 0.0 0.0 0.00 0.00 0.00 53 1015.6
20200705093330 68 328 0.0 0.0 0.00 0.00 0.00 52 1015.7
20200705092830 69 328 0.0 0.0 0.00 0.00 0.00 52 1015.8
20200705092330 69 328 0.0 0.0 0.00 0.00 0.00 52 1015.9
20200705091330 69 328 0.0 0.0 0.00 0.00 0.00 51 1016.1
20200705090830 69 328 0.0 0.0 0.00 0.00 0.00 50 1016.2
20200705090330 69 328 0.0 0.0 0.00 0.00 0.00 50 1016.3
20200705085829 70 328 0.0 0.0 0.00 0.00 0.00 50 1016.3
20200705085330 70 328 0.0 0.0 0.00 0.00 0.00 50 1016.3
20200705084829 70 328 0.0 0.0 0.00 0.00 0.00 50 1016.5
20200705084330 70 328 0.0 0.0 0.00 0.00 0.00 50 1016.6
20200705083830 70 328 0.0 0.0 0.00 0.00 0.00 49 1016.7
20200705083330 70 328 0.0 0.0 0.00 0.00 0.00 49 1016.9
20200705082829 71 328 0.0 0.0 0.00 0.00 0.00 49 1017.0
20200705082329 71 328 0.0 0.0 0.00 0.00 0.00 49 1017.1
20200705081830 71 328 0.0 0.0 0.00 0.00 0.00 48 1017.2
20200705081329 71 328 0.0 0.0 0.00 0.00 0.00 48 1017.2
20200705080829 72 328 0.0 0.0 0.00 0.00 0.00 48 1017.2
20200705080329 72 328 0.0 0.0 0.00 0.00 0.00 47 1017.3
20200705075830 72 328 0.0 0.0 0.00 0.00 0.00 47 1017.3
20200705075330 72 328 0.0 1.0 0.00 0.00 0.00 46 1017.3
20200705074829 72 328 0.0 0.0 0.00 0.00 0.00 46 1017.3
20200705074330 72 328 0.0 0.0 0.00 0.00 0.00 47 1017.6
20200705073830 72 328 0.0 1.0 0.00 0.00 0.00 46 1017.7
20200705073330 72 328 0.0 1.0 0.00 0.00 0.00 46 1017.6
20200705072830 73 328 0.0 1.0 0.00 0.00 0.00 46 1017.7
20200705072329 73 328 0.0 0.0 0.00 0.00 0.00 45 1017.8
20200705071830 73 328 0.0 0.0 0.00 0.00 0.00 45 1017.8
20200705071330 73 328 0.0 2.0 0.00 0.00 0.00 44 1017.8
20200705070830 73 328 0.0 1.0 0.00 0.00 0.00 44 1017.9
20200705070329 73 328 0.0 1.0 0.00 0.00 0.00 44 1017.9
20200705065829 73 328 0.0 1.0 0.00 0.00 0.00 43 1017.8
20200705065329 73 328 0.0 0.0 0.00 0.00 0.00 43 1017.7
20200705064830 74 328 0.0 0.0 0.00 0.00 0.00 43 1017.6
20200705064330 74 328 0.0 0.0 0.00 0.00 0.00 43 1017.6
20200705063829 74 328 0.0 0.0 0.00 0.00 0.00 43 1017.6
20200705063330 74 328 0.0 0.0 0.00 0.00 0.00 42 1017.7
20200705062829 75 328 0.0 0.0 0.00 0.00 0.00 42 1017.7
20200705062330 75 328 0.0 0.0 0.00 0.00 0.00 41 1017.7
20200705061830 75 328 0.0 0.0 0.00 0.00 0.00 40 1017.7
20200705061329 75 328 0.0 0.0 0.00 0.00 0.00 40 1017.8
20200705060829 75 328 0.0 0.0 0.00 0.00 0.00 40 1017.6
20200705060330 75 328 0.0 0.0 0.00 0.00 0.00 40 1017.7
20200705055829 75 328 0.0 0.0 0.00 0.00 0.00 40 1017.7
20200705055329 76 328 0.0 0.0 0.00 0.00 0.00 40 1017.4
20200705054830 76 328 0.0 0.0 0.00 0.00 0.00 39 1017.6
20200705054329 76 328 0.0 0.0 0.00 0.00 0.00 38 1017.8
20200705053830 76 328 0.0 1.0 0.00 0.00 0.00 38 1017.9
20200705053330 77 328 0.0 0.0 0.00 0.00 0.00 38 1017.9
20200705052829 77 328 0.0 0.0 0.00 0.00 0.00 37 1017.8
20200705052330 77 328 0.0 0.0 0.00 0.00 0.00 35 1017.9
20200705051829 78 328 0.0 0.0 0.00 0.00 0.00 34 1017.9
20200705051330 78 328 0.0 0.0 0.00 0.00 0.00 34 1017.9
20200705050829 78 328 0.0 0.0 0.00 0.00 0.00 33 1017.9
20200705050329 78 328 0.0 1.0 0.00 0.00 0.00 33 1017.8
20200705045829 78 328 0.0 2.0 0.00 0.00 0.00 32 1017.8
20200705045329 78 328 0.0 0.0 0.00 0.00 0.00 31 1017.8
20200705044829 79 328 0.0 0.0 0.00 0.00 0.00 30 1017.9
20200705044329 79 328 0.0 2.0 0.00 0.00 0.00 30 1017.9
20200705043829 79 328 0.0 1.0 0.00 0.00 0.00 29 1017.9
20200705043330 79 328 1.0 1.0 0.00 0.00 0.00 30 1017.9
20200705042829 79 328 0.0 1.0 0.00 0.00 0.00 30 1017.8
20200705042330 80 328 0.0 1.0 0.00 0.00 0.00 29 1017.9
20200705041829 80 328 0.0 1.0 0.00 0.00 0.00 30 1017.9
20200705041329 80 328 0.0 0.0 0.00 0.00 0.00 30 1018.0
20200705040830 80 328 0.0 0.0 0.00 0.00 0.00 30 1017.8
20200705040329 81 328 0.0 1.0 0.00 0.00 0.00 29 1017.8
20200705035829 81 328 0.0 2.0 0.00 0.00 0.00 29 1017.7
20200705035330 81 328 1.0 3.0 0.00 0.00 0.00 29 1017.7
20200705034829 81 328 1.0 3.0 0.00 0.00 0.00 28 1017.6
20200705034329 81 328 0.0 3.0 0.00 0.00 0.00 28 1017.6
20200705033829 81 328 0.0 2.0 0.00 0.00 0.00 28 1017.5
20200705033329 81 328 0.0 1.0 0.00 0.00 0.00 29 1017.6
20200705032829 82 328 1.0 1.0 0.00 0.00 0.00 30 1017.3
20200705032330 82 328 0.0 2.0 0.00 0.00 0.00 32 1017.3
20200705031830 82 328 0.0 2.0 0.00 0.00 0.00 31 1017.2
20200705031330 82 328 0.0 1.0 0.00 0.00 0.00 31 1017.2
20200705030830 82 328 0.0 1.0 0.00 0.00 0.00 31 1017.1
20200705030329 83 328 0.0 1.0 0.00 0.00 0.00 32 1017.0
20200705025830 83 328 0.0 3.0 0.00 0.00 0.00 31 1017.0
20200705025330 83 330 0.0 1.0 0.00 0.00 0.00 31 1016.9
20200705024829 83 330 0.0 4.0 0.00 0.00 0.00 30 1016.7
20200705024329 84 330 1.0 6.0 0.00 0.00 0.00 30 1016.6
20200705023829 85 329 0.0 6.0 0.00 0.00 0.00 29 1016.5
20200705023329 85 327 4.0 6.0 0.00 0.00 0.00 28 1016.5
20200705022830 86 322 3.0 15.0 0.00 0.00 0.00 27 1016.4
20200705022330 87 317 4.0 15.0 0.00 0.00 0.00 25 1016.4
20200705021830 87 313 0.0 2.0 0.00 0.00 0.00 24 1016.1
20200705021330 88 313 0.0 1.0 0.00 0.00 0.00 23 1016.0
20200705020829 88 313 0.0 1.0 0.00 0.00 0.00 23 1015.9
20200705020330 89 313 0.0 4.0 0.00 0.00 0.00 23 1015.8
20200705015830 89 313 0.0 4.0 0.00 0.00 0.00 23 1015.7
20200705015330 90 313 0.0 4.0 0.00 0.00 0.00 22 1015.7
20200705014829 90 313 0.0 2.0 0.00 0.00 0.00 21 1015.5
20200705014330 91 313 0.0 1.0 0.00 0.00 0.00 21 1015.4
20200705013830 91 313 0.0 1.0 0.00 0.00 0.00 21 1015.3
20200705013329 92 313 0.0 2.0 0.00 0.00 0.00 21 1015.2
20200705012829 92 313 0.0 3.0 0.00 0.00 0.00 20 1015.2
20200705012329 92 313 0.0 1.0 0.00 0.00 0.00 20 1015.2
20200705011829 92 313 0.0 4.0 0.00 0.00 0.00 20 1015.1
20200705011330 92 313 0.0 2.0 0.00 0.00 0.00 20 1015.0
20200705010829 92 313 0.0 2.0 0.00 0.00 0.00 21 1015.0
20200705010329 92 313 0.0 6.0 0.00 0.00 0.00 20 1014.8
20200705005830 92 313 0.0 6.0 0.00 0.00 0.00 20 1014.8
20200705005330 92 313 0.0 5.0 0.00 0.00 0.00 21 1014.7
20200705004829 92 313 2.0 5.0 0.00 0.00 0.00 20 1014.6
20200705004330 93 313 0.0 5.0 0.00 0.00 0.00 19 1014.5
20200705003830 93 311 2.0 5.0 0.00 0.00 0.00 19 1014.5
20200705003329 94 309 3.0 7.0 0.00 0.00 0.00 20 1014.4
20200705002829 94 310 4.0 7.0 0.00 0.00 0.00 20 1014.4
20200705002330 93 310 0.0 2.0 0.00 0.00 0.00 21 1014.2
20200705001829 93 310 1.0 6.0 0.00 0.00 0.00 21 1014.2
20200705001329 93 309 6.0 6.0 0.00 0.00 0.00 21 1014.1
20200705000830 93 309 4.0 7.0 0.00 0.00 0.00 21 1014.1
20200705000330 94 307 3.0 9.0 0.00 0.00 0.00 21 1014.2
20200704235829 94 294 6.0 10.0 0.00 0.00 0.00 21 1014.1
20200704235329 94 300 5.0 8.0 0.00 0.00 0.00 21 1014.0
20200704234830 94 301 3.0 9.0 0.00 0.00 0.00 21 1014.0
20200704234329 94 277 5.0 8.0 0.00 0.00 0.00 22 1013.9
20200704233829 95 279 2.0 12.0 0.00 0.00 0.00 22 1014.0
20200704233329 95 306 3.0 9.0 0.00 0.00 0.00 22 1013.9
20200704232829 95 300 1.0 9.0 0.00 0.00 0.00 23 1014.0
20200704232330 95 302 4.0 6.0 0.00 0.00 0.00 23 1013.9
20200704231829 95 302 4.0 9.0 0.00 0.00 0.00 22 1014.0
20200704231329 95 302 3.0 9.0 0.00 0.00 0.00 21 1014.0
20200704230829 94 296 3.0 11.0 0.00 0.00 0.00 23 1013.8
20200704230330 94 286 6.0 11.0 0.00 0.00 0.00 23 1013.8
20200704225829 94 277 5.0 10.0 0.00 0.00 0.00 22 1013.7
20200704225329 94 269 3.0 7.0 0.00 0.00 0.00 22 1013.6
20200704224829 95 268 4.0 8.0 0.00 0.00 0.00 22 1013.7
20200704224329 96 264 0.0 14.0 0.00 0.00 0.00 23 1013.8
20200704223830 96 272 5.0 7.0 0.00 0.00 0.00 24 1013.8
20200704223329 96 271 0.0 6.0 0.00 0.00 0.00 25 1013.7
20200704222830 96 272 4.0 4.0 0.00 0.00 0.00 25 1013.6
20200704222329 95 272 0.0 3.0 0.00 0.00 0.00 26 1013.7